User: anonymous   Login
Location: Caltech
(34.1382°N, 118.1253°W)
Time: 09:53:40
(UTC-07:00)
Language:

Cosmos 44 Rocket - Orbit

View from above orbital plane
View from above orbital plane
View from above satellite
View from above satellite

Ground track
Ground track

The orbit data is extracted from the following two-line orbital elements,

1   877U 64053B   17083.82235743 -.00000048 +00000-0 +15059-4 0  9990
2   877 065.0785 178.8420 0058077 157.5904 202.7752 14.59285765789217
Epoch (UTC): 24 March 2017 19:44:11
Eccentricity: 0.0058077
inclination: 65.0785°
perigee height: 654 km
apogee height: 736 km
right ascension of ascending node: 178.8420°
argument of perigee: 157.5904°
revolutions per day: 14.59285765
mean anomaly at epoch: 202.7752°
orbit number at epoch: 78921

The dashed part of the orbit path shows where the satellite is in the earth's shadow,  

DLR